Total_Precipitation_Accumulation
0.07 0.09 0.07 0.13 0.06 0.05 0.04 0.06 0.05 0.04 0.04 0.05 0.03 0.03 0.04 0.04 0.03 0.04 0.04 0.04 0.02 0.03 0.04 0.01 0.02 0.02 0.00 0.01 0.00 0.00 0.00 0.00 0.00 0.00 0.00 0.00 0.00 0.00 0.00 0.00 0.00 0.00 0.00 0.00 0.00 0.00 0.00 0.00 0.00 0.00 0.00 0.00 0.00 0.00 0.00 0.00 0.00 0.00 0.00 0.00 0.00 0.00 0.00 0.00 0.00 0.00 0.00 0.00 0.00 0.00 0.00 0.00 0.00 0.00 0.00 0.00 0.00 0.00 0.01 0.00 0.01 0.01 0.12 0.10 0.12 0.18 0.10 0.12
0.07 0.07 0.12 0.06 0.06 0.06 0.06 0.04 0.06 0.04 0.02 0.02 0.03 0.03 0.03 0.03 0.03 0.02 0.03 0.03 0.03 0.02 0.01 0.04 0.01 0.01 0.01 0.00 0.00 0.00 0.00 0.00 0.00 0.00 0.00 0.00 0.00 0.00 0.00 0.00 0.00 0.00 0.00 0.00 0.00 0.00 0.00 0.00 0.00 0.00 0.00 0.00 0.00 0.00 0.00 0.00 0.00 0.00 0.00 0.00 0.00 0.00 0.00 0.00 0.00 0.00 0.00 0.00 0.00 0.00 0.00 0.00 0.00 0.00 0.00 0.02 0.00 0.00 0.01 0.03 0.04 0.07 0.12 0.15 0.12 0.09 0.15 0.13
0.06 0.06 0.07 0.07 0.07 0.07 0.07 0.05 0.05 0.05 0.05 0.04 0.03 0.03 0.03 0.03 0.03 0.03 0.02 0.03 0.02 0.01 0.01 0.01 0.02 0.01 0.00 0.00 0.00 0.00 0.00 0.00 0.00 0.00 0.00 0.00 0.00 0.00 0.00 0.00 0.00 0.00 0.00 0.00 0.00 0.00 0.00 0.00 0.00 0.00 0.00 0.00 0.00 0.00 0.00 0.00 0.00 0.00 0.00 0.00 0.00 0.00 0.00 0.00 0.00 0.00 0.00 0.00 0.00 0.00 0.00 0.00 0.00 0.00 0.00 0.03 0.01 0.00 0.01 0.03 0.06 0.15 0.25 0.17 0.17 0.16 0.20 0.22
0.07 0.07 0.06 0.07 0.06 0.06 0.06 0.08 0.06 0.05 0.06 0.05 0.04 0.04 0.04 0.03 0.03 0.03 0.03 0.03 0.01 0.02 0.02 0.01 0.01 0.01 0.01 0.00 0.00 0.00 0.00 0.00 0.00 0.00 0.00 0.00 0.00 0.00 0.00 0.00 0.00 0.00 0.00 0.00 0.00 0.00 0.00 0.00 0.00 0.00 0.00 0.00 0.00 0.00 0.00 0.00 0.00 0.00 0.00 0.00 0.00 0.00 0.00 0.00 0.00 0.00 0.00 0.00 0.00 0.00 0.00 0.00 0.00 0.00 0.00 0.00 0.03 0.03 0.01 0.02 0.10 0.13 0.23 0.17 0.22 0.18 0.19 0.39
0.07 0.07 0.07 0.05 0.06 0.06 0.07 0.07 0.06 0.07 0.07 0.05 0.05 0.05 0.05 0.03 0.04 0.03 0.04 0.02 0.03 0.02 0.02 0.01 0.01 0.01 0.00 0.00 0.00 0.00 0.00 0.00 0.00 0.00 0.00 0.00 0.00 0.00 0.00 0.00 0.00 0.00 0.00 0.00 0.00 0.00 0.00 0.00 0.00 0.00 0.00 0.00 0.00 0.00 0.00 0.00 0.00 0.00 0.00 0.00 0.00 0.00 0.00 0.00 0.00 0.00 0.00 0.00 0.00 0.00 0.00 0.00 0.00 0.00 0.00 0.00 0.02 0.13 0.07 0.07 0.01 0.02 0.34 0.38 0.15 0.18 0.33 0.41
0.05 0.05 0.05 0.05 0.05 0.07 0.07 0.06 0.06 0.05 0.05 0.04 0.05 0.04 0.05 0.05 0.04 0.04 0.03 0.04 0.05 0.03 0.02 0.02 0.01 0.00 0.01 0.00 0.00 0.00 0.00 0.00 0.00 0.00 0.00 0.00 0.00 0.00 0.00 0.00 0.00 0.00 0.00 0.00 0.00 0.00 0.00 0.00 0.00 0.00 0.00 0.00 0.00 0.00 0.00 0.00 0.00 0.00 0.00 0.00 0.00 0.00 0.00 0.00 0.00 0.00 0.00 0.00 0.00 0.00 0.00 0.00 0.00 0.00 0.00 0.00 0.01 0.09 0.06 0.06 0.07 0.02 0.10 0.31 0.20 0.38 0.52 0.89
0.05 0.06 0.05 0.06 0.08 0.07 0.07 0.10 0.06 0.06 0.07 0.04 0.03 0.05 0.04 0.09 0.05 0.04 0.04 0.05 0.03 0.04 0.02 0.02 0.01 0.00 0.00 0.00 0.00 0.00 0.00 0.00 0.00 0.00 0.00 0.00 0.00 0.00 0.00 0.00 0.00 0.00 0.00 0.00 0.00 0.00 0.00 0.00 0.00 0.00 0.00 0.00 0.00 0.00 0.00 0.00 0.00 0.00 0.00 0.00 0.00 0.00 0.00 0.00 0.00 0.00 0.00 0.00 0.00 0.00 0.00 0.00 0.00 0.00 0.00 0.00 0.00 0.00 0.03 0.07 0.02 0.10 0.11 0.18 0.17 0.35 0.46 0.66
0.06 0.05 0.10 0.06 0.06 0.05 0.05 0.05 0.06 0.04 0.04 0.05 0.05 0.06 0.04 0.05 0.08 0.04 0.04 0.04 0.04 0.03 0.04 0.02 0.01 0.01 0.01 0.00 0.00 0.00 0.00 0.00 0.00 0.00 0.00 0.00 0.00 0.00 0.00 0.00 0.00 0.00 0.00 0.00 0.00 0.00 0.00 0.00 0.00 0.00 0.00 0.00 0.00 0.00 0.00 0.00 0.00 0.00 0.00 0.00 0.00 0.00 0.00 0.00 0.00 0.00 0.00 0.00 0.00 0.00 0.00 0.00 0.00 0.00 0.00 0.02 0.01 0.01 0.03 0.03 0.02 0.37 0.41 0.45 0.36 0.46 0.77 1.11
0.04 0.06 0.07 0.08 0.06 0.04 0.04 0.04 0.05 0.04 0.05 0.04 0.04 0.04 0.07 0.06 0.06 0.06 0.04 0.05 0.04 0.03 0.04 0.02 0.00 0.01 0.01 0.01 0.01 0.01 0.00 0.00 0.00 0.00 0.00 0.00 0.00 0.00 0.00 0.00 0.00 0.00 0.00 0.00 0.00 0.00 0.00 0.00 0.00 0.00 0.00 0.00 0.00 0.00 0.00 0.00 0.00 0.00 0.00 0.00 0.00 0.00 0.00 0.00 0.00 0.00 0.00 0.00 0.00 0.00 0.00 0.00 0.00 0.00 0.02 0.18 0.08 0.04 0.06 0.07 0.31 0.61 0.41 0.72 0.67 0.49 0.58 1.17
0.06 0.06 0.06 0.08 0.06 0.03 0.02 0.04 0.04 0.05 0.04 0.04 0.04 0.04 0.04 0.07 0.05 0.07 0.04 0.04 0.04 0.05 0.03 0.02 0.01 0.01 0.00 0.02 0.01 0.00 0.00 0.00 0.00 0.00 0.00 0.00 0.00 0.00 0.00 0.00 0.00 0.00 0.00 0.00 0.00 0.00 0.00 0.00 0.00 0.00 0.00 0.00 0.00 0.00 0.00 0.00 0.00 0.00 0.00 0.00 0.00 0.00 0.00 0.00 0.00 0.00 0.00 0.00 0.00 0.00 0.00 0.00 0.00 0.00 0.12 0.54 0.49 0.09 0.09 0.24 0.44 0.38 0.30 0.65 0.50 0.70 0.96 1.05
0.09 0.05 0.07 0.09 0.07 0.05 0.06 0.04 0.04 0.09 0.06 0.06 0.06 0.06 0.05 0.05 0.07 0.06 0.06 0.03 0.05 0.03 0.02 0.01 0.03 0.02 0.05 0.01 0.02 0.00 0.00 0.00 0.00 0.00 0.00 0.00 0.00 0.00 0.00 0.00 0.00 0.00 0.00 0.00 0.00 0.00 0.00 0.00 0.00 0.00 0.00 0.00 0.00 0.00 0.00 0.00 0.00 0.00 0.00 0.00 0.00 0.00 0.00 0.00 0.00 0.00 0.00 0.00 0.00 0.00 0.00 0.00 0.00 0.00 0.05 0.14 0.54 0.70 0.50 0.56 1.10 0.26 0.29 0.71 1.20 1.44 1.06 1.43
0.07 0.10 0.10 0.05 0.10 0.15 0.05 0.08 0.10 0.08 0.10 0.09 0.06 0.06 0.07 0.06 0.05 0.02 0.04 0.06 0.05 0.04 0.02 0.01 0.03 0.10 0.02 0.04 0.03 0.00 0.00 0.00 0.00 0.00 0.00 0.00 0.00 0.00 0.00 0.00 0.00 0.00 0.00 0.00 0.00 0.00 0.00 0.00 0.00 0.00 0.00 0.00 0.00 0.00 0.00 0.00 0.00 0.00 0.00 0.00 0.00 0.00 0.00 0.00 0.00 0.00 0.00 0.00 0.00 0.00 0.00 0.00 0.01 0.14 0.06 0.11 0.25 0.82 0.85 0.63 0.37 0.62 0.58 0.75 0.93 0.86 0.82 1.00
0.07 0.09 0.06 0.11 0.11 0.15 0.07 0.11 0.08 0.10 0.07 0.08 0.07 0.07 0.06 0.05 0.08 0.08 0.04 0.05 0.02 0.04 0.02 0.04 0.02 0.09 0.14 0.06 0.00 0.00 0.00 0.00 0.00 0.00 0.00 0.00 0.00 0.00 0.00 0.00 0.00 0.00 0.00 0.00 0.00 0.00 0.00 0.00 0.00 0.00 0.00 0.00 0.00 0.00 0.00 0.00 0.00 0.00 0.00 0.00 0.00 0.00 0.00 0.00 0.00 0.00 0.00 0.00 0.00 0.00 0.02 0.02 0.04 0.06 0.23 0.30 0.34 0.78 0.89 0.55 0.43 0.81 1.30 2.29 1.96 1.26 1.28 1.42
0.09 0.07 0.08 0.07 0.07 0.08 0.12 0.10 0.07 0.10 0.08 0.05 0.08 0.14 0.07 0.06 0.06 0.04 0.08 0.06 0.07 0.05 0.06 0.04 0.08 0.04 0.21 0.01 0.00 0.00 0.00 0.00 0.00 0.00 0.00 0.00 0.00 0.00 0.00 0.00 0.00 0.00 0.00 0.00 0.00 0.00 0.00 0.00 0.00 0.00 0.00 0.00 0.00 0.00 0.00 0.00 0.00 0.00 0.00 0.00 0.00 0.00 0.00 0.00 0.00 0.00 0.00 0.00 0.00 0.00 0.04 0.09 0.16 0.17 0.33 0.35 0.51 0.37 0.74 1.38 1.69 1.60 2.37 1.32 1.25 1.46 1.54 1.69
0.09 0.10 0.07 0.07 0.13 0.12 0.11 0.12 0.13 0.11 0.08 0.07 0.06 0.05 0.07 0.06 0.06 0.04 0.05 0.06 0.05 0.05 0.04 0.11 0.08 0.12 0.15 0.00 0.00 0.00 0.00 0.00 0.00 0.00 0.00 0.00 0.00 0.00 0.00 0.00 0.00 0.00 0.00 0.00 0.00 0.00 0.00 0.00 0.00 0.00 0.00 0.00 0.00 0.00 0.00 0.00 0.00 0.00 0.00 0.00 0.00 0.00 0.00 0.00 0.00 0.00 0.00 0.00 0.00 0.00 0.02 0.20 0.09 0.34 0.32 0.25 0.29 0.59 0.46 0.79 1.02 1.74 2.03 1.73 1.39 1.45 1.52 2.40
0.08 0.09 0.08 0.09 0.14 0.09 0.06 0.11 0.09 0.09 0.08 0.07 0.06 0.05 0.07 0.13 0.13 0.10 0.13 0.15 0.05 0.10 0.06 0.08 0.05 0.04 0.03 0.01 0.00 0.00 0.00 0.00 0.00 0.00 0.00 0.00 0.00 0.00 0.00 0.00 0.00 0.00 0.00 0.00 0.00 0.00 0.00 0.00 0.00 0.00 0.00 0.00 0.00 0.00 0.00 0.00 0.00 0.00 0.00 0.00 0.00 0.00 0.00 0.00 0.00 0.00 0.00 0.00 0.00 0.00 0.04 0.03 0.26 0.25 0.24 0.25 0.35 0.21 0.30 0.87 1.06 1.88 1.60 1.83 1.49 0.93 0.92 0.62
0.08 0.07 0.09 0.11 0.10 0.12 0.09 0.08 0.08 0.15 0.11 0.06 0.04 0.03 0.06 0.05 0.06 0.21 0.07 0.15 0.06 0.04 0.07 0.05 0.02 0.07 0.14 0.00 0.00 0.00 0.00 0.00 0.00 0.00 0.00 0.00 0.00 0.00 0.00 0.00 0.00 0.00 0.00 0.00 0.00 0.00 0.00 0.00 0.00 0.00 0.00 0.00 0.00 0.00 0.00 0.00 0.00 0.00 0.00 0.00 0.00 0.00 0.00 0.00 0.00 0.00 0.00 0.00 0.00 0.00 0.00 0.02 0.05 0.12 0.12 0.28 0.21 0.25 0.76 1.53 1.66 1.75 1.22 0.97 1.06 0.72 0.65 0.46
0.08 0.08 0.10 0.09 0.07 0.09 0.05 0.05 0.08 0.08 0.11 0.08 0.04 0.03 0.04 0.05 0.05 0.07 0.09 0.11 0.16 0.08 0.08 0.05 0.02 0.05 0.00 0.00 0.00 0.00 0.00 0.00 0.00 0.00 0.00 0.00 0.00 0.00 0.00 0.00 0.00 0.00 0.00 0.00 0.00 0.00 0.00 0.00 0.00 0.00 0.00 0.00 0.00 0.00 0.00 0.00 0.00 0.00 0.00 0.00 0.00 0.00 0.00 0.00 0.00 0.00 0.00 0.00 0.00 0.00 0.02 0.01 0.05 0.08 0.20 0.34 0.75 1.39 0.65 1.31 0.36 0.25 0.25 0.78 0.76 0.82 0.84 0.81
0.09 0.10 0.11 0.08 0.08 0.06 0.08 0.06 0.05 0.06 0.12 0.12 0.06 0.05 0.02 0.05 0.11 0.07 0.05 0.16 0.20 0.33 0.16 0.19 0.12 0.03 0.02 0.00 0.00 0.00 0.00 0.00 0.00 0.00 0.00 0.00 0.00 0.00 0.00 0.00 0.00 0.00 0.00 0.00 0.00 0.00 0.00 0.00 0.00 0.00 0.00 0.00 0.00 0.00 0.00 0.00 0.00 0.00 0.01 0.00 0.00 0.00 0.00 0.00 0.00 0.00 0.00 0.00 0.00 0.03 0.06 0.06 0.06 0.14 0.53 1.54 1.33 1.16 1.46 1.28 0.39 0.60 0.53 0.54 0.54 0.89 1.35 1.02
0.11 0.12 0.11 0.09 0.11 0.07 0.06 0.05 0.04 0.09 0.52 0.07 0.07 0.07 0.12 0.20 0.18 0.21 0.09 0.18 0.18 0.05 0.02 0.06 0.00 0.00 0.00 0.00 0.00 0.00 0.00 0.00 0.00 0.00 0.00 0.00 0.00 0.00 0.00 0.00 0.00 0.00 0.00 0.00 0.00 0.00 0.00 0.00 0.00 0.00 0.00 0.00 0.00 0.00 0.00 0.00 0.00 0.00 0.00 0.00 0.00 0.00 0.00 0.00 0.00 0.00 0.00 0.00 0.00 0.00 0.03 0.05 0.07 0.14 0.61 1.50 2.52 1.20 0.99 0.26 0.17 0.34 0.28 0.41 0.65 0.76 0.71 0.71
0.10 0.13 0.11 0.14 0.11 0.12 0.07 0.05 0.03 0.06 0.17 0.22 0.12 0.24 0.17 0.09 0.24 0.14 0.16 0.13 0.07 0.02 0.01 0.05 0.03 0.01 0.00 0.00 0.00 0.00 0.00 0.00 0.00 0.00 0.00 0.00 0.00 0.00 0.00 0.00 0.00 0.00 0.00 0.00 0.00 0.00 0.00 0.00 0.00 0.00 0.00 0.00 0.00 0.00 0.00 0.00 0.00 0.00 0.00 0.00 0.00 0.00 0.00 0.00 0.00 0.00 0.00 0.00 0.01 0.01 0.01 0.06 0.05 0.12 0.52 0.46 2.47 1.51 1.32 0.79 0.39 0.64 1.18 0.69 0.46 0.50 0.40 0.68
0.12 0.11 0.16 0.14 0.13 0.12 0.09 0.05 0.04 0.06 0.21 0.18 0.20 0.11 0.07 0.17 0.12 0.21 0.15 0.19 0.08 0.03 0.03 0.01 0.01 0.01 0.00 0.00 0.00 0.00 0.00 0.00 0.00 0.00 0.00 0.00 0.00 0.00 0.00 0.00 0.00 0.00 0.00 0.00 0.01 0.01 0.00 0.00 0.00 0.00 0.00 0.00 0.00 0.00 0.00 0.00 0.00 0.00 0.00 0.00 0.00 0.00 0.00 0.00 0.00 0.00 0.00 0.00 0.02 0.02 0.03 0.08 0.11 0.13 0.85 0.43 0.41 1.75 1.42 0.44 0.73 1.35 0.95 1.88 1.77 1.52 1.37 1.05
0.24 0.11 0.12 0.15 0.18 0.16 0.19 0.16 0.09 0.18 0.23 0.15 0.15 0.09 0.11 0.12 0.09 0.18 0.18 0.32 0.11 0.04 0.05 0.01 0.01 0.00 0.00 0.00 0.00 0.00 0.00 0.00 0.00 0.00 0.00 0.00 0.00 0.00 0.00 0.00 0.00 0.00 0.00 0.00 0.00 0.01 0.00 0.00 0.00 0.00 0.00 0.00 0.00 0.00 0.00 0.00 0.00 0.00 0.00 0.00 0.00 0.00 0.01 0.03 0.00 0.00 0.00 0.00 0.01 0.01 0.03 0.14 0.16 0.30 0.29 0.34 0.37 0.39 1.20 0.73 0.72 1.07 1.04 0.65 1.27 1.08 0.84 1.02
0.20 0.28 0.30 0.38 0.26 0.24 0.21 0.29 0.18 0.20 0.12 0.06 0.09 0.16 0.17 0.27 0.14 0.15 0.30 0.36 0.10 0.07 0.00 0.00 0.01 0.00 0.00 0.00 0.00 0.00 0.00 0.00 0.00 0.00 0.00 0.00 0.00 0.00 0.00 0.00 0.00 0.00 0.00 0.00 0.00 0.00 0.00 0.00 0.00 0.00 0.00 0.00 0.00 0.00 0.00 0.00 0.00 0.00 0.00 0.00 0.00 0.01 0.00 0.00 0.04 0.00 0.00 0.00 0.00 0.02 0.06 0.22 0.24 0.36 0.42 0.42 0.41 0.31 0.89 0.75 0.61 0.44 0.79 0.81 1.13 0.88 0.82 0.65
0.15 0.33 0.29 0.19 0.36 0.21 0.34 0.35 0.08 0.08 0.08 0.15 0.12 0.23 0.43 0.12 0.25 0.30 0.30 0.24 0.04 0.03 0.00 0.01 0.00 0.00 0.00 0.00 0.00 0.00 0.00 0.00 0.00 0.00 0.00 0.00 0.00 0.00 0.00 0.00 0.00 0.00 0.00 0.00 0.00 0.00 0.00 0.01 0.00 0.00 0.00 0.00 0.00 0.00 0.00 0.00 0.00 0.00 0.00 0.00 0.00 0.00 0.01 0.00 0.00 0.00 0.01 0.02 0.02 0.02 0.06 0.33 0.35 0.53 0.22 0.31 0.36 0.41 0.50 0.54 0.89 1.02 0.61 0.69 0.77 0.83 0.77 0.74
0.28 0.22 0.29 0.25 0.38 0.61 0.67 0.16 0.20 0.14 0.12 0.30 0.13 0.15 0.27 0.41 0.25 0.40 0.25 0.45 0.12 0.04 0.04 0.01 0.00 0.02 0.00 0.00 0.00 0.00 0.00 0.00 0.00 0.00 0.00 0.00 0.00 0.00 0.01 0.01 0.00 0.00 0.00 0.00 0.00 0.00 0.01 0.01 0.00 0.00 0.00 0.00 0.00 0.00 0.00 0.00 0.00 0.00 0.01 0.00 0.00 0.00 0.00 0.00 0.01 0.00 0.01 0.02 0.07 0.00 0.04 0.21 0.21 0.35 0.36 0.38 0.20 0.28 0.55 0.46 0.48 1.23 0.63 0.33 0.41 0.52 0.97 0.77
0.19 0.25 0.26 0.35 0.41 0.75 0.20 0.32 0.26 0.19 0.15 0.22 0.23 0.38 0.17 0.34 0.71 0.28 0.29 0.23 0.17 0.12 0.00 0.02 0.00 0.01 0.00 0.00 0.00 0.00 0.03 0.01 0.00 0.00 0.00 0.00 0.00 0.00 0.00 0.01 0.01 0.00 0.00 0.04 0.00 0.00 0.00 0.02 0.00 0.00 0.00 0.00 0.00 0.00 0.00 0.00 0.00 0.01 0.01 0.00 0.00 0.00 0.00 0.00 0.01 0.00 0.03 0.00 0.01 0.00 0.03 0.24 0.29 0.18 0.17 0.38 0.40 0.37 0.55 0.41 0.33 0.16 0.93 0.53 0.56 1.03 0.77 0.53
0.25 0.59 0.27 0.30 0.52 0.21 0.34 0.30 0.21 0.24 0.39 0.40 0.12 0.36 0.41 0.32 0.30 0.56 0.15 0.32 0.11 0.01 0.06 0.05 0.00 0.01 0.00 0.00 0.00 0.00 0.00 0.00 0.00 0.00 0.00 0.00 0.00 0.00 0.00 0.01 0.01 0.01 0.00 0.01 0.02 0.00 0.00 0.00 0.00 0.00 0.00 0.00 0.00 0.00 0.00 0.00 0.00 0.00 0.00 0.00 0.00 0.00 0.00 0.00 0.01 0.01 0.02 0.04 0.07 0.01 0.03 0.14 0.20 0.26 0.27 0.34 0.66 0.48 0.64 0.38 0.25 0.24 0.29 0.58 1.18 1.12 0.76 0.61
0.41 0.26 0.35 0.40 0.27 0.62 0.14 0.48 0.41 0.34 0.51 0.44 0.32 0.37 0.30 1.13 0.45 0.44 0.41 0.19 0.22 0.02 0.00 0.18 0.00 0.00 0.00 0.00 0.00 0.00 0.00 0.00 0.00 0.02 0.00 0.00 0.00 0.01 0.01 0.01 0.00 0.00 0.02 0.00 0.01 0.01 0.00 0.00 0.00 0.00 0.00 0.00 0.00 0.00 0.00 0.00 0.00 0.00 0.00 0.00 0.00 0.00 0.00 0.00 0.02 0.00 0.09 0.02 0.07 0.04 0.08 0.05 0.33 0.19 0.40 0.43 0.26 0.30 0.26 0.21 0.27 0.28 0.27 0.39 0.72 0.97 0.59 0.44
0.30 0.40 0.25 0.35 0.20 0.27 0.45 0.30 0.52 0.77 0.42 0.57 0.41 0.23 0.26 0.63 0.86 0.32 0.48 0.08 0.13 0.21 0.02 0.11 0.03 0.03 0.00 0.01 0.01 0.00 0.01 0.00 0.00 0.00 0.01 0.01 0.00 0.00 0.00 0.00 0.02 0.07 0.01 0.00 0.00 0.02 0.03 0.00 0.00 0.00 0.00 0.00 0.00 0.00 0.00 0.00 0.00 0.00 0.00 0.00 0.00 0.00 0.01 0.01 0.01 0.02 0.11 0.05 0.02 0.01 0.05 0.00 0.27 0.26 0.20 0.30 0.23 0.13 0.14 0.19 0.28 0.29 0.31 0.33 0.63 0.55 0.48 0.66
0.15 0.23 0.45 0.34 0.46 0.36 0.23 0.32 0.84 0.68 0.54 0.23 0.28 0.49 0.75 0.55 0.73 0.23 0.17 0.12 0.02 0.29 0.04 0.10 0.05 0.01 0.05 0.09 0.06 0.01 0.00 0.01 0.00 0.01 0.05 0.01 0.02 0.00 0.07 0.02 0.00 0.06 0.03 0.01 0.01 0.00 0.00 0.01 0.00 0.00 0.00 0.00 0.00 0.00 0.00 0.00 0.00 0.00 0.00 0.01 0.00 0.03 0.03 0.03 0.03 0.02 0.09 0.00 0.02 0.04 0.03 0.05 0.17 0.49 0.44 0.15 0.19 0.11 0.11 0.12 0.20 0.24 0.17 0.21 0.32 0.41 0.46 0.51
0.15 0.12 0.40 0.25 0.41 0.33 0.28 0.70 0.64 0.27 0.48 0.12 0.23 0.32 0.64 0.63 0.33 0.45 0.18 0.30 0.51 0.77 0.35 0.30 0.09 0.13 0.09 0.06 0.05 0.01 0.01 0.01 0.01 0.01 0.02 0.00 0.02 0.01 0.01 0.20 0.00 0.06 0.09 0.02 0.05 0.00 0.01 0.00 0.00 0.00 0.00 0.00 0.00 0.00 0.00 0.00 0.00 0.00 0.00 0.01 0.17 0.18 0.01 0.15 0.04 0.07 0.00 0.01 0.04 0.02 0.03 0.10 0.05 0.17 0.37 0.10 0.10 0.06 0.06 0.09 0.16 0.15 0.13 0.13 0.23 0.17 0.24 0.19
0.05 0.04 0.09 0.36 0.23 0.47 0.24 0.26 0.49 0.70 0.45 0.25 0.69 0.97 0.66 0.72 0.39 0.13 0.21 0.50 1.33 0.31 0.42 0.32 0.35 0.10 0.14 0.08 0.06 0.01 0.01 0.04 0.03 0.01 0.01 0.00 0.01 0.03 0.02 0.08 0.09 0.04 0.05 0.05 0.06 0.00 0.02 0.00 0.00 0.00 0.00 0.00 0.00 0.00 0.01 0.01 0.00 0.00 0.01 0.09 0.05 0.12 0.05 0.02 0.07 0.02 0.07 0.02 0.03 0.03 0.07 0.10 0.44 0.41 0.27 0.18 0.14 0.11 0.07 0.11 0.09 0.11 0.16 0.17 0.20 0.16 0.23 0.20
0.01 0.01 0.15 0.08 0.27 0.22 0.17 0.27 0.29 0.30 0.37 0.33 0.48 0.59 1.14 0.48 0.22 0.23 0.36 0.66 1.23 0.32 0.15 0.36 0.22 0.15 0.19 0.30 0.17 0.01 0.04 0.04 0.02 0.03 0.00 0.02 0.00 0.06 0.03 0.02 0.01 0.01 0.00 0.10 0.04 0.01 0.02 0.15 0.00 0.01 0.02 0.00 0.00 0.00 0.00 0.04 0.00 0.00 0.00 0.01 0.07 0.10 0.05 0.02 0.05 0.09 0.02 0.12 0.08 0.04 0.02 0.13 0.16 1.93 0.15 0.12 0.11 0.02 0.04 0.11 0.07 0.10 0.17 0.14 0.21 0.11 0.19 0.49
0.01 0.02 0.06 0.08 0.11 0.08 0.08 0.12 0.25 0.24 0.45 0.61 0.55 0.70 0.61 0.28 0.26 0.37 0.75 0.74 0.76 0.41 0.34 0.25 0.39 0.25 0.19 0.08 0.02 0.02 0.02 0.22 0.02 0.03 0.01 0.00 0.03 0.01 0.04 0.02 0.00 0.00 0.04 0.01 0.06 0.00 0.01 0.08 0.01 0.00 0.00 0.00 0.00 0.00 0.00 0.01 0.02 0.00 0.01 0.01 0.04 0.04 0.01 0.07 0.22 0.05 0.14 0.08 0.03 0.10 0.09 0.34 0.81 1.57 0.47 0.16 0.06 0.06 0.06 0.08 0.07 0.17 0.15 0.13 0.22 0.30 0.27 0.44
0.01 0.05 0.04 0.09 0.08 0.05 0.02 0.41 0.22 0.32 0.43 0.67 0.80 0.70 0.46 0.32 0.64 1.02 0.94 0.56 0.53 0.51 0.34 0.31 0.28 0.30 0.18 0.10 0.04 0.07 0.05 0.13 0.18 0.05 0.08 0.01 0.01 0.05 0.01 0.01 0.05 0.01 0.04 0.01 0.10 0.05 0.01 0.11 0.01 0.01 0.00 0.00 0.00 0.00 0.00 0.00 0.23 0.07 0.00 0.05 0.01 0.01 0.02 0.01 0.00 0.01 0.00 0.00 0.07 0.02 0.14 0.52 0.41 1.34 0.43 0.49 0.18 0.12 0.08 0.11 0.10 0.10 0.10 0.21 0.30 0.26 0.38 0.52
0.09 0.06 0.13 0.05 0.06 0.03 0.06 0.24 0.20 0.32 0.44 0.55 0.89 0.63 0.28 0.36 0.50 0.60 0.78 0.63 0.72 0.56 0.73 0.90 0.31 0.23 0.18 0.13 0.10 0.02 0.20 0.04 0.18 0.04 0.22 0.01 0.06 0.00 0.04 0.01 0.00 0.01 0.01 0.04 0.06 0.02 0.11 0.23 0.02 0.01 0.00 0.00 0.00 0.00 0.00 0.00 0.00 0.00 0.03 0.04 0.00 0.00 0.03 0.03 0.09 0.08 0.01 0.01 0.10 0.03 0.08 0.48 0.22 0.76 0.90 0.51 0.24 0.28 0.20 0.15 0.08 0.17 0.23 0.32 0.51 0.80 0.92 1.04
0.11 0.16 0.14 0.06 0.05 0.05 0.07 0.22 0.24 0.29 0.60 0.76 0.71 0.51 0.45 0.67 0.61 0.60 0.60 0.72 0.61 0.74 0.99 1.09 0.65 0.32 0.19 0.16 0.10 0.04 0.09 0.05 0.33 0.03 0.20 0.05 0.28 0.00 0.02 0.02 0.00 0.00 0.00 0.00 0.02 0.03 0.00 0.14 0.05 0.00 0.00 0.01 0.00 0.00 0.00 0.00 0.00 0.00 0.06 0.02 0.01 0.08 0.05 0.03 0.00 0.03 0.03 0.04 0.10 0.11 0.25 0.16 0.16 0.81 0.66 0.58 0.24 0.45 0.53 0.40 0.33 0.26 0.41 0.80 0.60 0.81 1.15 1.62
0.28 0.38 0.42 0.08 0.05 0.04 0.07 0.19 0.34 0.44 0.81 0.76 0.51 0.82 0.60 0.61 0.45 0.48 0.62 0.53 0.44 0.86 0.85 0.64 0.62 0.36 0.28 0.11 0.10 0.06 0.07 0.17 0.09 0.18 0.13 0.28 0.22 0.09 0.13 0.01 0.04 0.00 0.00 0.00 0.03 0.03 0.00 0.06 0.07 0.00 0.00 0.02 0.01 0.00 0.01 0.01 0.00 0.00 0.00 0.00 0.00 0.00 0.13 0.08 0.01 0.20 0.01 0.17 0.03 0.21 0.16 0.26 0.54 0.60 0.19 0.22 0.20 0.26 0.24 0.28 0.41 0.73 0.65 0.94 1.07 1.12 1.20 1.17
0.52 0.48 0.81 0.10 0.03 0.04 0.16 0.24 0.78 0.91 1.03 0.73 0.64 0.68 0.67 0.67 0.38 0.58 0.27 0.37 0.80 0.61 1.13 0.70 0.38 0.41 0.34 0.22 0.03 0.15 0.11 0.11 0.07 0.26 0.07 0.46 0.11 0.08 0.12 0.01 0.10 0.00 0.00 0.00 0.02 0.00 0.06 0.01 0.14 0.08 0.00 0.00 0.04 0.00 0.02 0.00 0.04 0.00 0.00 0.00 0.00 0.01 0.04 0.00 0.10 0.03 0.07 0.08 0.16 0.16 0.19 0.60 0.60 0.11 0.22 0.23 0.17 0.33 0.30 0.26 0.29 0.54 0.87 0.55 0.86 1.18 1.25 1.15
0.51 0.99 0.83 0.07 0.09 0.09 0.36 0.63 0.82 0.85 0.74 0.48 0.53 0.64 0.48 0.71 0.48 0.48 0.23 0.36 0.45 0.59 0.59 0.77 0.50 0.50 0.16 0.15 0.08 0.06 0.06 0.02 0.08 0.17 0.05 0.31 0.17 0.35 0.00 0.02 0.01 0.21 0.00 0.01 0.01 0.01 0.02 0.01 0.05 0.12 0.05 0.02 0.01 0.00 0.00 0.00 0.02 0.01 0.00 0.03 0.01 0.05 0.11 0.09 0.05 0.00 0.08 0.06 0.12 0.12 0.22 0.42 0.63 0.18 0.26 0.49 0.63 0.37 0.54 0.37 0.42 0.77 0.27 0.53 0.62 0.89 0.56 0.72
0.70 0.96 0.84 0.14 0.17 0.22 0.44 0.73 0.42 0.54 0.63 0.51 0.75 0.84 0.82 0.71 0.65 0.43 0.29 0.33 0.57 0.50 0.28 0.37 0.32 0.35 0.24 0.14 0.12 0.07 0.07 0.02 0.14 0.07 0.18 0.36 0.29 0.09 0.07 0.00 0.01 0.01 0.09 0.07 0.16 0.11 0.04 0.05 0.12 0.06 0.17 0.37 0.09 0.05 0.01 0.01 0.01 0.01 0.00 0.02 0.01 0.02 0.01 0.12 0.08 0.19 0.05 0.11 0.04 0.21 0.15 0.53 0.54 0.41 0.42 0.20 0.42 0.36 0.53 0.57 0.69 0.77 0.75 0.98 1.23 1.38 0.88 0.60
1.00 1.76 0.52 0.27 0.19 0.36 0.65 0.63 0.41 0.59 0.70 0.51 0.58 0.71 0.58 0.75 0.59 0.32 0.67 0.54 0.72 0.31 0.45 0.39 0.51 0.38 0.18 0.17 0.15 0.15 0.10 0.07 0.06 0.21 0.10 0.14 0.30 0.10 0.05 0.01 0.01 0.03 0.01 0.08 0.04 0.07 0.00 0.01 0.03 0.06 0.06 0.08 0.01 0.00 0.01 0.00 0.00 0.00 0.00 0.00 0.01 0.07 0.05 0.05 0.12 0.24 0.14 0.16 0.11 0.13 0.06 0.81 0.38 0.95 0.60 0.49 0.88 0.62 0.41 0.57 0.76 0.54 0.68 0.79 0.95 0.63 0.96 0.41
1.52 1.82 0.66 0.39 0.25 0.49 0.99 0.78 0.67 0.50 0.54 0.44 0.50 0.64 0.72 0.52 0.41 0.73 1.01 0.60 0.65 0.51 0.40 0.37 0.59 0.65 0.40 0.18 0.24 0.14 0.13 0.13 0.02 0.07 0.17 0.07 0.24 0.03 0.08 0.07 0.05 0.21 0.05 0.41 0.15 0.11 0.15 0.03 0.09 0.17 0.17 0.26 0.22 0.09 0.04 0.02 0.01 0.01 0.06 0.03 0.01 0.07 0.04 0.09 0.04 0.07 0.03 0.06 0.19 0.11 0.25 0.74 0.92 0.36 0.68 0.42 0.20 0.31 1.59 1.26 1.31 0.68 0.33 0.88 0.88 1.14 1.16 0.71
1.67 0.84 0.79 0.57 0.27 0.96 1.27 0.97 1.32 0.80 0.60 0.59 0.73 0.72 0.79 0.47 0.79 0.31 0.94 0.91 0.75 0.60 0.55 0.45 0.43 0.86 0.38 0.39 0.35 0.12 0.11 0.05 0.15 0.03 0.08 0.08 0.36 0.01 0.05 0.02 0.08 0.28 0.08 0.08 0.00 0.07 0.12 0.36 0.07 0.14 0.37 0.44 0.39 0.47 0.53 0.23 0.12 0.04 0.01 0.03 0.03 0.02 0.13 0.14 0.05 0.05 0.04 0.02 0.04 0.13 0.19 0.44 0.42 0.30 0.39 0.38 0.39 0.44 0.47 0.50 0.51 0.75 0.99 0.33 0.50 0.57 0.42 0.77
1.56 0.70 0.50 1.26 0.89 1.39 1.01 1.13 1.31 1.29 0.82 0.74 0.56 0.42 0.58 0.58 0.36 0.66 0.22 0.62 0.75 0.73 0.73 0.37 0.42 0.87 0.63 0.51 0.25 0.16 0.07 0.02 0.06 0.14 0.07 0.20 0.14 0.03 0.07 0.05 0.01 0.11 0.05 0.01 0.06 0.03 0.33 0.14 0.34 0.20 0.29 0.60 0.53 0.31 0.15 0.01 0.11 0.12 0.17 0.03 0.12 0.01 0.04 0.04 0.11 0.15 0.10 0.21 0.15 0.26 0.19 0.47 0.52 0.39 0.27 0.22 0.41 0.36 0.80 0.38 0.48 0.54 0.41 0.78 0.64 0.93 0.61 0.73
1.25 0.58 0.30 0.64 0.50 0.88 1.29 0.98 1.25 1.46 1.12 0.86 0.75 0.46 0.67 0.44 0.35 0.39 0.09 0.55 0.43 0.79 0.39 0.46 0.83 0.55 0.40 0.39 0.23 0.24 0.05 0.10 0.02 0.09 0.09 0.14 0.13 0.11 0.02 0.08 0.07 0.02 0.03 0.07 0.08 0.08 0.23 0.21 0.20 0.23 0.17 0.27 0.15 0.16 0.22 0.04 0.16 0.14 0.20 0.24 0.14 0.09 0.10 0.18 0.03 0.11 0.23 0.09 0.27 0.64 0.29 0.21 0.33 0.26 0.21 0.24 0.23 0.20 0.37 0.26 0.16 0.21 0.46 0.40 0.56 0.64 0.63 0.32
1.08 0.61 0.36 0.32 0.83 0.68 1.12 1.10 1.20 1.58 1.14 0.80 0.65 0.55 0.61 0.55 0.46 0.42 0.57 0.42 0.72 0.40 0.44 0.49 0.36 0.37 0.46 0.51 0.17 0.19 0.24 0.11 0.32 0.36 0.11 0.17 0.11 0.15 0.11 0.03 0.17 0.11 0.07 0.11 0.08 0.11 0.37 0.35 0.40 0.23 0.42 0.22 0.36 0.28 0.10 0.09 0.08 0.10 0.13 0.14 0.23 0.19 0.16 0.19 0.12 0.09 0.26 0.05 0.43 0.42 0.27 0.16 0.20 0.18 0.18 0.19 0.14 0.20 0.25 0.28 0.23 0.25 0.17 0.10 0.13 0.21 0.36 0.25
1.71 0.25 0.42 0.12 0.52 0.64 0.66 0.96 1.18 1.59 1.73 1.00 0.97 0.66 0.65 0.41 0.42 0.78 0.31 1.03 0.42 0.70 0.37 0.48 0.51 0.52 0.56 0.37 0.36 0.24 0.26 0.57 0.48 0.17 0.27 0.40 0.28 0.33 0.33 0.28 0.10 0.09 0.05 0.06 0.15 0.09 0.10 0.31 0.46 0.29 0.35 0.35 0.24 0.16 0.19 0.12 0.10 0.17 0.10 0.11 0.19 0.12 0.12 0.12 0.10 0.06 0.13 0.20 0.15 0.27 0.05 0.11 0.20 0.24 0.13 0.16 0.14 0.20 0.28 0.23 0.22 0.12 0.10 0.28 0.12 0.12 0.11 0.27
0.96 0.97 0.46 0.13 0.26 0.15 0.34 0.66 1.06 1.40 1.51 1.17 0.89 0.47 0.48 0.41 0.44 0.29 0.17 0.40 0.55 0.58 0.77 1.07 0.79 0.46 0.59 0.38 0.32 0.60 0.48 0.52 0.38 0.17 0.33 0.08 0.20 0.42 0.61 0.53 0.62 0.09 0.02 0.12 0.07 0.31 0.14 0.23 0.07 0.39 0.57 0.37 0.53 0.31 0.22 0.27 0.22 0.26 0.07 0.04 0.06 0.10 0.30 0.12 0.35 0.39 0.12 0.16 0.40 0.42 0.12 0.17 0.33 0.17 0.15 0.14 0.12 0.16 0.65 0.51 0.41 0.22 0.09 0.24 0.19 0.06 0.05 0.08
1.27 0.88 0.78 0.85 0.45 0.30 0.55 0.45 0.60 0.79 1.18 1.42 1.42 0.77 0.68 0.38 0.37 0.18 0.25 0.37 0.29 0.36 0.95 1.06 0.22 0.63 0.50 0.50 0.55 0.77 0.69 0.90 0.36 0.24 0.27 0.14 0.18 0.12 0.15 0.33 0.05 0.66 0.53 0.65 0.55 0.88 0.14 0.51 0.19 0.31 0.45 0.51 0.27 0.61 0.63 0.74 0.60 0.36 0.22 0.32 0.19 0.28 0.35 0.22 0.23 0.17 0.26 0.42 0.48 0.41 0.25 0.22 0.55 0.30 0.39 0.15 0.11 0.10 0.13 0.20 0.21 0.07 0.07 0.10 0.07 0.14 0.09 0.34
1.13 0.55 0.55 0.92 0.64 0.35 0.54 0.31 0.67 0.87 0.78 0.91 1.24 1.14 1.03 0.87 0.69 0.50 0.36 0.18 0.91 0.45 0.93 1.19 0.40 0.62 0.45 0.78 0.56 0.44 0.16 0.26 0.15 0.14 0.20 0.08 0.06 0.11 0.07 0.09 0.03 0.18 0.15 0.17 0.53 0.46 0.43 0.35 0.31 0.63 0.38 0.64 0.53 0.60 0.45 0.42 0.40 0.45 0.37 0.36 0.25 0.29 0.14 0.31 0.18 0.15 0.24 0.42 0.42 0.55 0.40 0.29 0.26 0.17 0.11 0.23 0.11 0.12 0.21 0.08 0.11 0.10 0.08 0.08 0.08 0.08 0.09 0.09